Regional Weather Roundup
Issued by NWS

Home | Current Version | Previous Version | Text Only | Print | Product List | Glossary Off
Versions: 1 2 3 4 5 6 7 8 9 10 11 12 13 14 15 16 17 18 19 20 21 22 23 24 25 26 27 28 29 30 31 32 33 34 35 36 37 38 39 40 41 42 43 44 45 46 47 48 49 50

338
ASUS45 KCYS 132110
RWRWY

WYOMING REGIONAL WEATHER ROUNDUP
NATIONAL WEATHER SERVICE CHEYENNE WY
200 PM MST SAT FEB 13 2016

NOTE:  "FAIR" INDICATES FEW OR NO CLOUDS BELOW 12,000 FEET
WITH NO SIGNIFICANT WEATHER AND/OR OBSTRUCTIONS TO VISIBILITY.

WYZ001-132200-
YELLOWSTONE NATIONAL PARK

CITY           SKY/WX    TMP DP  RH WIND       PRES   REMARKS
LK YELLOWSTONE   N/A     27  18  69 W8G17     30.08R WCI  19
W YELLOWSTONE  NOT AVBL

$$
WYZ002>013-054>058-071-098>099-132200-
NORTHERN WYOMING

CITY           SKY/WX    TMP DP  RH WIND       PRES   REMARKS
JACKSON        PTSUNNY   36  19  51 SW23G46   30.09R WCI  24
CODY           FAIR      41  27  56 NW22G33   29.95R
GREYBULL       NOT AVBL
WORLAND        CLOUDY    41  31  67 N41G55    29.86R
SHERIDAN       LGT RAIN  37  32  81 NW32      29.88R WCI  25
BUFFALO        CLOUDY    37  31  78 N32G49    29.86R WCI  24
GILLETTE       PTSUNNY   58  28  32 NW9       29.73F
HULETT         FAIR      52  32  46 SW14      29.75F
NEWCASTLE      FAIR      50  27  40 CALM      29.78F

$$
WYZ014>020-022>026-101>103-132200-
CENTRAL WYOMING

CITY           SKY/WX    TMP DP  RH WIND       PRES   REMARKS
BIG PINEY      FAIR      42  20  41 W36G45    30.07F
PINEDALE         N/A     37  23  56 W30G40    30.09S WCI  25
DUBOIS         CLOUDY    37  18  44 NW29G39   29.92S WCI  25
LANDER         FAIR      49  17  28 W40G55    29.87F
RIVERTON       FAIR      50  22  33 W29G41    29.90F
CASPER         FAIR      48  23  37 SW32G46   29.87F
DOUGLAS        FAIR      57  22  25 W28G35    29.86F

$$
WYZ021-027>030-104>119-132200-
SOUTHERN WYOMING

CITY           SKY/WX    TMP DP  RH WIND       PRES   REMARKS
EVANSTON       FAIR      41  23  48 SW14G26   30.22F
KEMMERER       FAIR      39  27  60 W25G31    30.15F WCI  28
FORT BRIDGER   CLEAR     41  28  60 W16       30.22F
ROCK SPRINGS   FAIR      43  23  45 W25G32    30.13F
DIXON          FAIR      42  22  46 SW9       30.19F
RAWLINS        FAIR      40  21  46 SW29G40   30.05F WCI  29
SARATOGA       FAIR      41  23  48 MISG      30.08F
LARAMIE        FAIR      49  19  30 W32G44    30.00F
CHEYENNE       FAIR      59  16  18 W24G38    29.95F
TORRINGTON     FAIR      59  19  21 W23G31    29.84F

$$




USA.gov is the U.S. government's official web portal to all federal, state and local government web resources and services.